This is the latest recevied weather packets stored in our database for station/object SQ6RR-11. If no packets are shown the sender has not sent any weather packets the latest 10 day(s).
| Time | Temp. | Humidity | Pressure | Rain* | Wind** | Luminosity | Snow |
|---|---|---|---|---|---|---|---|
| 1778073202 | 22.22° C | 34% | 1007.7 hPa | 0 mm | - | - | - |
| 1778072913 | 22.22° C | 35% | 1007.6 hPa | 0 mm | - | - | - |
| 1778072653 | 22.22° C | 35% | 1007.8 hPa | 0 mm | - | - | - |
| 1778072383 | 22.22° C | 36% | 1007.9 hPa | 0 mm | - | - | - |
| 1778072104 | 22.22° C | 36% | 1007.9 hPa | 0 mm | - | - | - |
| 1778071846 | 21.67° C | 36% | 1007.9 hPa | 0 mm | - | - | - |
| 1778071568 | 22.22° C | 35% | 1007.9 hPa | 0 mm | - | - | - |
| 1778071306 | 22.22° C | 36% | 1007.9 hPa | 0 mm | - | - | - |
| 1778071054 | 22.78° C | 36% | 1007.9 hPa | 0 mm | - | - | - |
| 1778070789 | 22.22° C | 35% | 1008 hPa | 0 mm | - | - | - |
| 1778070517 | 22.22° C | 39% | 1008 hPa | 0 mm | - | - | - |
| 1778070244 | 22.22° C | 40% | 1008 hPa | 0 mm | - | - | - |
| 1778069983 | 20.56° C | 42% | 1008 hPa | 0 mm | - | - | - |
| 1778069709 | 20° C | 43% | 1008.1 hPa | 0 mm | - | - | - |
| 1778069461 | 20° C | 42% | 1008.2 hPa | 0 mm | - | - | - |
| 1778069198 | 19.44° C | 42% | 1008.3 hPa | 0 mm | - | - | - |
| 1778068918 | 19.44° C | 42% | 1008.2 hPa | 0 mm | - | - | - |
| 1778068647 | 19.44° C | 41% | 1008.1 hPa | 0 mm | - | - | - |
| 1778068382 | 20° C | 41% | 1008 hPa | 0 mm | - | - | - |
| 1778068126 | 20° C | 42% | 1008.1 hPa | 0 mm | - | - | - |
| 1778067863 | 20° C | 42% | 1008.1 hPa | 0 mm | - | - | - |
| 1778067578 | 20° C | 42% | 1008.1 hPa | 0 mm | - | - | - |
| 1778067318 | 20° C | 43% | 1008 hPa | 0 mm | - | - | - |
| 1778067041 | 20° C | 44% | 1008 hPa | 0 mm | - | - | - |
| 1778066786 | 20° C | 45% | 1008 hPa | 0 mm | - | - | - |
* Rain latest hour (hover to see other rain measurements)
** Current wind speed in m/s (hover to see current wind gust speed)